Stations météo

réclame
Mon MeteoGroup
Sciacca, Italie (16436): Température de l'air & dewpoint: 18.05.2019 03:00:00 - 24.05.2019 03:00:00 (CEST)Sciacca, Italie (16436): Vitesse du vent: 18.05.2019 03:00:00 - 24.05.2019 03:00:00 (CEST)Sciacca, Italie (16436): Direction du vent: 18.05.2019 03:00:00 - 24.05.2019 03:00:00 (CEST)Sciacca, Italie (16436): reduced air pressure: 18.05.2019 03:00:00 - 24.05.2019 03:00:00 (CEST)Sciacca, Italie (16436): Quantités de précipitations: 18.05.2019 03:00:00 - 24.05.2019 03:00:00 (CEST)
Date & Time tt [°C] td [°C] ff [km/h] ff [knt] dd ppp [hPa] rr [mm]
24.05.2019 03:00:00 - - - - - - -
24.05.2019 02:00:00 14,3 11,6 - - - 1027,4 -
24.05.2019 01:00:00 14,7 10,9 - - - 1027,6 -
24.05.2019 00:00:00 16,3 12,8 18 10 NNW 1027,5 -
23.05.2019 23:00:00 17,3 9,6 18 10 NNW 1027,5 -
23.05.2019 22:00:00 16,8 13,3 - - - 1027,2 -
23.05.2019 21:00:00 17,5 12,8 8 4 NNW 1026,8 -
23.05.2019 20:00:00 18,6 11,1 18 10 W 1026,3 -
23.05.2019 19:00:00 19,0 15,6 18 10 WNW 1026,1 -
23.05.2019 18:00:00 20,8 12,7 21 11 W 1026,2 -
23.05.2019 17:00:00 21,1 14,9 22 12 W 1026,6 -
23.05.2019 16:00:00 21,2 15,7 - - - 1026,8 -
23.05.2019 15:00:00 21,0 14,6 22 12 W 1027,2 -
23.05.2019 14:00:00 20,4 17,5 16 9 WSW 1027,8 -
23.05.2019 13:00:00 20,3 16,1 - - - 1028,1 -
23.05.2019 12:00:00 21,2 12,8 - - - 1028,2 -
23.05.2019 11:00:00 21,4 12,8 - - - 1028,2 -
23.05.2019 10:00:00 19,6 10,8 - - - 1028,6 -
23.05.2019 09:00:00 15,3 14,6 - - - 1028,9 -
23.05.2019 08:00:00 14,2 13,7 - - - 1028,5 -
23.05.2019 07:00:00 13,1 12,1 - - - 1028,6 -
23.05.2019 06:00:00 13,8 12,5 - - - 1028,1 -
23.05.2019 05:00:00 12,8 12,5 - - - 1028,1 -
23.05.2019 04:00:00 12,9 12,6 - - - 1028,3 -
23.05.2019 03:00:00 12,9 12,6 5 3 WSW 1028,5 -
23.05.2019 02:00:00 12,8 12,3 0 0 N 1028,6 -
23.05.2019 01:00:00 14,1 13,6 4 2 WSW 1028,5 -
23.05.2019 00:00:00 14,1 13,6 8 4 NE 1028,6 -
22.05.2019 23:00:00 14,3 13,6 - - - 1028,5 -
22.05.2019 22:00:00 15,0 14,0 - - - 1027,9 -
22.05.2019 21:00:00 16,1 14,9 0 0 N 1027,0 -
22.05.2019 20:00:00 18,3 16,2 0 0 N 1026,6 -
22.05.2019 19:00:00 19,0 16,2 13 7 W 1026,3 -
22.05.2019 18:00:00 17,9 16,5 4 2 WSW 1026,9 -
22.05.2019 17:00:00 17,9 16,3 5 3 SW 1027,2 -
22.05.2019 16:00:00 17,7 15,8 11 6 WSW 1027,2 -
22.05.2019 15:00:00 19,6 15,2 13 7 WSW 1027,2 -
22.05.2019 14:00:00 20,2 15,1 9 5 SW 1027,4 -
22.05.2019 13:00:00 19,7 14,0 8 4 NNE 1028,2 -
22.05.2019 12:00:00 19,8 10,2 9 5 S 1028,3 -
22.05.2019 11:00:00 19,7 8,6 - - - 1028,3 -
22.05.2019 10:00:00 20,0 7,6 - - - 1028,5 -
22.05.2019 09:00:00 18,6 12,8 - - - 1028,8 -
22.05.2019 08:00:00 16,5 12,2 - - - 1028,9 -
22.05.2019 07:00:00 14,8 11,3 - - - 1028,6 -
22.05.2019 06:00:00 14,6 11,0 - - - 1028,7 -
22.05.2019 05:00:00 14,3 11,1 - - - 1028,7 -
22.05.2019 04:00:00 13,9 11,6 - - - 1028,8 -
22.05.2019 03:00:00 13,5 10,8 - - - 1028,6 -
22.05.2019 02:00:00 14,8 12,3 - - - 1028,8 -
22.05.2019 01:00:00 14,0 10,8 0 0 N 1028,8 -
22.05.2019 00:00:00 14,3 10,7 0 0 N 1029,1 -
21.05.2019 23:00:00 15,5 10,8 0 0 N 1028,9 -
21.05.2019 22:00:00 15,6 8,8 0 0 N 1028,4 -
21.05.2019 21:00:00 18,2 8,9 - - - 1027,4 -
21.05.2019 20:00:00 18,1 8,6 5 3 W 1027,2 -
21.05.2019 19:00:00 18,7 10,0 - - - 1027,0 -
21.05.2019 18:00:00 18,0 12,6 15 8 W 1027,3 -
21.05.2019 17:00:00 19,7 13,1 15 8 SW 1026,7 -
21.05.2019 16:00:00 19,8 11,2 - - - 1027,8 -
21.05.2019 15:00:00 19,0 14,4 - - - 1027,9 -
21.05.2019 14:00:00 18,3 14,5 - - - 1028,4 -
21.05.2019 13:00:00 17,4 14,8 15 8 SW 1028,6 -
21.05.2019 12:00:00 17,4 15,7 - - - 1028,7 -
21.05.2019 11:00:00 17,1 15,4 - - - 1028,6 -
21.05.2019 10:00:00 16,5 14,8 - - - 1028,7 -
21.05.2019 09:00:00 16,1 14,0 9 5 WSW 1028,4 -
21.05.2019 08:00:00 14,7 13,4 9 5 W 1027,9 -
21.05.2019 07:00:00 13,6 12,5 13 7 NW 1027,6 -
21.05.2019 06:00:00 13,5 12,2 21 11 NW 1027,1 -
21.05.2019 05:00:00 14,2 11,3 15 8 NW 1026,9 -
21.05.2019 04:00:00 10,1 9,0 0 0 N 1027,3 -
21.05.2019 03:00:00 10,8 9,4 0 0 N 1027,2 -
21.05.2019 02:00:00 11,8 9,9 0 0 N 1026,8 -
21.05.2019 01:00:00 13,4 10,2 0 0 N 1027,2 -
21.05.2019 00:00:00 14,9 10,3 11 6 N 1026,9 -
20.05.2019 23:00:00 14,4 12,1 13 7 NNW 1026,9 -
20.05.2019 22:00:00 14,4 12,1 9 5 NNW 1026,2 -
20.05.2019 21:00:00 15,0 12,1 - - - 1025,6 -
20.05.2019 20:00:00 15,6 13,6 15 8 W 1025,5 -
20.05.2019 19:00:00 16,9 13,7 16 9 W 1024,9 -
20.05.2019 18:00:00 17,7 13,5 16 9 WSW 1024,7 -
20.05.2019 17:00:00 17,6 12,5 16 9 W 1024,7 -
20.05.2019 16:00:00 - - - - - - -
20.05.2019 15:00:00 18,6 16,5 15 8 SW 1024,9 -
20.05.2019 14:00:00 18,1 16,4 11 6 SSW 1024,9 -
20.05.2019 13:00:00 17,6 16,1 - - - 1024,8 -
20.05.2019 12:00:00 17,2 15,5 - - - 1024,9 -
20.05.2019 11:00:00 16,6 14,9 - - - 1024,4 -
20.05.2019 10:00:00 16,5 15,0 - - - 1024,2 -
20.05.2019 09:00:00 15,1 14,4 4 2 S 1024,4 -
20.05.2019 08:00:00 13,8 13,3 0 0 N 1024,3 -
20.05.2019 07:00:00 12,6 12,1 - - - 1024,0 -
20.05.2019 06:00:00 13,0 12,5 - - - 1023,4 -
20.05.2019 05:00:00 13,1 12,5 - - - 1023,1 -
20.05.2019 04:00:00 13,4 12,6 - - - 1023,2 -
20.05.2019 03:00:00 13,5 12,7 - - - 1023,2 -
20.05.2019 02:00:00 14,2 13,4 0 0 N 1023,3 -
20.05.2019 01:00:00 14,5 13,5 2 1 W 1023,1 -
20.05.2019 00:00:00 15,3 13,6 - - - 1023,0 -
19.05.2019 23:00:00 15,8 8,0 8 4 WSW 1022,5 -
19.05.2019 22:00:00 17,1 6,2 2 1 S 1021,7 -
19.05.2019 21:00:00 17,5 4,7 2 1 E 1020,7 -
19.05.2019 20:00:00 18,3 3,3 4 2 W 1020,4 0,0
19.05.2019 19:00:00 18,7 5,8 13 7 W 1020,0 -
19.05.2019 18:00:00 18,5 12,2 15 8 W 1020,1 -
19.05.2019 17:00:00 21,0 9,2 24 13 W 1019,5 -
19.05.2019 16:00:00 - - - - - - -
19.05.2019 15:00:00 20,8 12,4 21 11 WSW 1018,6 -
19.05.2019 14:00:00 20,0 14,9 21 11 W 1018,7 -
19.05.2019 13:00:00 19,6 15,2 22 12 W 1018,7 -
19.05.2019 12:00:00 19,1 15,3 - - - 1018,9 -
19.05.2019 11:00:00 18,3 13,1 - - - 1018,9 -
19.05.2019 10:00:00 17,1 14,1 - - - 1018,7 -
19.05.2019 09:00:00 15,6 14,2 15 8 W 1018,8 -
19.05.2019 08:00:00 14,6 13,6 11 6 E 1018,6 -
19.05.2019 07:00:00 14,1 12,8 15 8 W 1018,1 -
19.05.2019 06:00:00 14,5 11,4 4 2 NW 1017,6 -
19.05.2019 05:00:00 14,9 12,2 8 4 NW 1017,5 -
19.05.2019 04:00:00 15,1 12,9 11 6 NW 1017,7 -
19.05.2019 03:00:00 - - - - - - -
19.05.2019 02:00:00 14,5 13,2 11 6 NW 1018,1 -
19.05.2019 01:00:00 14,3 12,8 0 0 N 1018,3 -
19.05.2019 00:00:00 15,2 13,5 4 2 NE 1018,4 -
18.05.2019 23:00:00 15,7 14,0 21 11 NW 1018,8 -
18.05.2019 22:00:00 15,3 13,9 15 8 WNW 1018,6 -
18.05.2019 21:00:00 16,0 14,3 21 11 W 1017,9 -
18.05.2019 20:00:00 16,4 14,3 18 10 WNW 1017,7 0,0
18.05.2019 19:00:00 17,5 15,1 16 9 W 1017,2 -
18.05.2019 18:00:00 17,8 14,6 - - - 1017,1 -
18.05.2019 17:00:00 18,7 13,5 11 6 SW 1017,1 -
18.05.2019 16:00:00 19,3 11,3 9 5 SW 1016,9 -
18.05.2019 15:00:00 19,4 11,4 8 4 SW 1017,6 -
18.05.2019 14:00:00 19,7 11,7 - - - 1018,1 -
18.05.2019 13:00:00 19,5 13,1 - - - 1018,6 -
18.05.2019 12:00:00 18,2 9,2 - - - 1018,8 -
18.05.2019 11:00:00 17,9 8,9 - - - 1019,0 -
18.05.2019 10:00:00 18,3 9,8 0 0 N 1019,1 -
18.05.2019 09:00:00 16,9 9,0 - - - 1019,4 -
18.05.2019 08:00:00 15,6 9,0 - - - 1019,4 -
18.05.2019 07:00:00 15,0 7,2 2 1 NNE 1018,7 -
18.05.2019 06:00:00 14,6 7,1 8 4 NE 1018,1 -
18.05.2019 05:00:00 14,2 7,9 9 5 NNE 1019,0 -
18.05.2019 04:00:00 - - - - - - -
18.05.2019 03:00:00 13,3 10,6 11 6 NE 1020,1 -

tt = Température de l'air
td = dewpoint
ff = Vitesse du vent
dd = Direction du vent
ppp = reduced air pressure
rr = Quantités de précipitations

stations d'obs. à proximité